University AP, Davis, CA, CA

1:57 PM PST on December 07, 2019 (GMT -0800)
University AP, Davis, CA

Weather History for KEDU - October, 2019

Change the Weather History Date:

Wednesday, October 9, 2019

  Actual Average (WUND) Record (WUND)
Temperature  
Mean Temperature 64 °F -  
Max Temperature 73 °F - - (-1)
Min Temperature 55 °F - - (-1)
Degree Days  
Heating Degree Days 1    
Growing Degree Days 14 (Base 50)    
Moisture  
Dew Point 23 °F    
Average Humidity 26    
Maximum Humidity 77    
Minimum Humidity 10    
Precipitation  
Precipitation 0.00 in - - ()
Sea Level Pressure  
Sea Level Pressure 29.87 in    
Wind  
Wind Speed 9 mph ()    
Max Wind Speed 24 mph    
Max Gust Speed 34 mph    
Visibility 9.4 miles    
Events      
Averages and records for this station are not official NWS values.
T = Trace of Precipitation, MM = Missing Value Source: Averaged Metar Reports

Daily Weather History Graph

Daily Weather History Graph

Search for Another Location

Airport or City:

Astronomy

Oct. 09, 2019 Rise Set
Actual Time 7:10 AM PDT 6:37 PM PDT
Civil Twilight 6:43 AM PDT 7:04 PM PDT
Nautical Twilight 6:13 AM PDT 7:35 PM PDT
Astronomical Twilight 5:42 AM PDT 8:05 PM PDT
Moon 5:08 PM PDT (10/9) 3:06 AM PDT (10/9)
Length of Visible Light 12h 20m
Length of Day
11h 27m
Waxing Gibbous, 85% of the Moon is Illuminated
Oct 9
Waxing Gibbous
Oct 13
Full
Oct 21
Last Quarter
Oct 27
New
Nov 4
First Quarter

Hourly Weather History & Observations

Time (PDT) Temp. Dew Point Humidity Pressure Visibility Wind Dir Wind Speed Gust Speed Precip Events Conditions
12:00 AM 59.0 °F 46.4 °F 63% 29.77 in 10.0 mi Calm Calm - N/A   Clear
12:20 AM 57.2 °F 46.4 °F 67% 29.77 in 10.0 mi Calm Calm - N/A   Clear
12:40 AM 57.2 °F 48.2 °F 72% 29.77 in 10.0 mi Calm Calm - N/A   Clear
1:00 AM 55.4 °F 44.6 °F 67% 29.78 in 10.0 mi Calm Calm - N/A   Clear
1:20 AM 57.2 °F 46.4 °F 67% 29.78 in 10.0 mi Calm Calm - N/A   Clear
1:40 AM 55.4 °F 48.2 °F 77% 29.79 in 10.0 mi Calm Calm - N/A   Clear
2:00 AM 57.2 °F 48.2 °F 72% 29.79 in 10.0 mi North 3.5 mph - N/A   Clear
2:20 AM 59.0 °F 46.4 °F 63% 29.80 in 10.0 mi North 3.5 mph - N/A   Clear
2:40 AM 60.8 °F 44.6 °F 55% 29.80 in 10.0 mi NNW 5.8 mph - N/A   Clear
3:00 AM 60.8 °F 42.8 °F 52% 29.81 in 10.0 mi North 5.8 mph - N/A   Clear
3:20 AM 59.0 °F 42.8 °F 55% 29.81 in 10.0 mi Calm Calm - N/A   Clear
3:40 AM 57.2 °F 39.2 °F 51% 29.82 in 10.0 mi North 5.8 mph - N/A   Clear
3:55 AM 59.0 °F 35.6 °F 42% 29.82 in 10.0 mi NNW 5.8 mph - N/A   Clear
4:20 AM 59.0 °F 32.0 °F 36% 29.83 in 10.0 mi NNW 4.6 mph - N/A   Clear
4:40 AM 57.2 °F 32.0 °F 38% 29.83 in 10.0 mi North 5.8 mph - N/A   Clear
5:00 AM 57.2 °F 28.4 °F 33% 29.83 in 10.0 mi NNW 4.6 mph - N/A   Clear
5:20 AM 59.0 °F 24.8 °F 27% 29.84 in 10.0 mi North 5.8 mph - N/A   Clear
5:40 AM 57.2 °F 23.0 °F 27% 29.85 in 10.0 mi NNW 6.9 mph - N/A   Clear
6:20 AM 59.0 °F 26.6 °F 29% 29.86 in 10.0 mi North 10.4 mph - N/A   Clear
6:40 AM 59.0 °F 28.4 °F 31% 29.87 in 10.0 mi North 13.8 mph 20.7 mph N/A   Clear
7:00 AM 59.0 °F 28.4 °F 31% 29.88 in 10.0 mi North 12.7 mph 19.6 mph N/A   Clear
7:20 AM 59.0 °F 30.2 °F 34% 29.88 in 10.0 mi North 15.0 mph 18.4 mph N/A   Clear
7:40 AM 59.0 °F 30.2 °F 34% 29.90 in 10.0 mi NNW 15.0 mph 18.4 mph N/A   Clear
8:00 AM 59.0 °F 30.2 °F 34% 29.90 in 10.0 mi North 10.4 mph 19.6 mph N/A   Clear
8:20 AM 59.0 °F 28.4 °F 31% 29.91 in 9.0 mi North 12.7 mph 20.7 mph N/A   Clear
8:40 AM 60.8 °F 26.6 °F 27% 29.92 in 9.0 mi North 15.0 mph 21.9 mph N/A   Clear
9:00 AM 62.6 °F 24.8 °F 24% 29.92 in 7.0 mi North 19.6 mph 25.3 mph N/A   Clear
9:20 AM 62.6 °F 24.8 °F 24% 29.93 in 7.0 mi North 16.1 mph 24.2 mph N/A   Clear
9:40 AM 62.6 °F 23.0 °F 22% 29.92 in 5.0 mi NNW 24.2 mph 34.5 mph N/A   Clear
10:00 AM 64.4 °F 21.2 °F 19% 29.93 in 5.0 mi North 16.1 mph 31.1 mph N/A   Clear
10:20 AM 64.4 °F 19.4 °F 18% 29.93 in 5.0 mi North 19.6 mph 32.2 mph N/A   Clear
10:40 AM 66.2 °F 19.4 °F 17% 29.93 in 5.0 mi North 21.9 mph 32.2 mph N/A   Clear
11:00 AM 66.2 °F 19.4 °F 17% 29.93 in 8.0 mi North 17.3 mph 29.9 mph N/A   Clear
11:20 AM 66.2 °F 19.4 °F 17% 29.93 in 7.0 mi North 18.4 mph 29.9 mph N/A   Clear
11:40 AM 68.0 °F 19.4 °F 16% 29.92 in 8.0 mi NNW 17.3 mph 25.3 mph N/A   Clear
12:00 PM 68.0 °F 19.4 °F 16% 29.92 in 8.0 mi North 21.9 mph 29.9 mph N/A   Clear
12:15 PM 68.0 °F 17.6 °F 15% 29.92 in 9.0 mi North 19.6 mph 29.9 mph N/A   Clear
12:40 PM 68.0 °F 17.6 °F 15% 29.92 in 10.0 mi North 18.4 mph 27.6 mph N/A   Clear
1:00 PM 69.8 °F 19.4 °F 15% 29.91 in 9.0 mi North 18.4 mph 28.8 mph N/A   Clear
1:20 PM 69.8 °F 17.6 °F 14% 29.91 in 10.0 mi NNW 20.7 mph 26.5 mph N/A   Clear
1:40 PM 71.6 °F 17.6 °F 13% 29.91 in 10.0 mi NNW 17.3 mph 27.6 mph N/A   Clear
2:00 PM 71.6 °F 19.4 °F 14% 29.90 in 10.0 mi NNW 17.3 mph 23.0 mph N/A   Clear
2:20 PM 71.6 °F 17.6 °F 13% 29.89 in 10.0 mi North 19.6 mph 26.5 mph N/A   Clear
2:40 PM 73.4 °F 17.6 °F 12% 29.88 in 10.0 mi NNW 18.4 mph 25.3 mph N/A   Clear
3:00 PM 73.4 °F 17.6 °F 12% 29.88 in 10.0 mi North 17.3 mph 23.0 mph N/A   Clear
3:15 PM 73.4 °F 17.6 °F 12% 29.88 in 10.0 mi North 17.3 mph 26.5 mph N/A   Clear
3:40 PM 73.4 °F 17.6 °F 12% 29.87 in 10.0 mi NNW 16.1 mph 23.0 mph N/A   Clear
4:00 PM 73.4 °F 17.6 °F 12% 29.87 in 10.0 mi North 12.7 mph 23.0 mph N/A   Clear
4:20 PM 73.4 °F 17.6 °F 12% 29.87 in 10.0 mi North 16.1 mph 24.2 mph N/A   Clear
4:40 PM 73.4 °F 17.6 °F 12% 29.87 in 10.0 mi NNW 16.1 mph 24.2 mph N/A   Clear
5:00 PM 73.4 °F 17.6 °F 12% 29.86 in 10.0 mi North 19.6 mph 24.2 mph N/A   Clear
5:40 PM 73.4 °F 15.8 °F 11% 29.86 in 10.0 mi NNW 9.2 mph 26.5 mph N/A   Clear
6:00 PM 71.6 °F 15.8 °F 12% 29.86 in 10.0 mi NNW 10.4 mph 20.7 mph N/A   Clear
6:20 PM 71.6 °F 12.2 °F 10% 29.86 in 10.0 mi North 15.0 mph 25.3 mph N/A   Clear
6:40 PM 69.8 °F 12.2 °F 11% 29.86 in 10.0 mi North 15.0 mph 25.3 mph N/A   Clear
7:00 PM 68.0 °F 10.4 °F 11% 29.87 in 10.0 mi North 17.3 mph 26.5 mph N/A   Clear
7:20 PM 68.0 °F 10.4 °F 11% 29.87 in 10.0 mi NNW 20.7 mph 28.8 mph N/A   Clear
7:40 PM 68.0 °F 8.6 °F 10% 29.88 in 10.0 mi NNW 21.9 mph 28.8 mph N/A   Clear
8:00 PM 68.0 °F 8.6 °F 10% 29.88 in 10.0 mi NNW 20.7 mph 29.9 mph N/A   Clear
8:20 PM 68.0 °F 8.6 °F 10% 29.88 in 10.0 mi NNW 20.7 mph 28.8 mph N/A   Clear
8:40 PM 66.2 °F 8.6 °F 11% 29.89 in 10.0 mi NNW 21.9 mph 33.4 mph N/A   Clear
9:00 PM 66.2 °F 10.4 °F 11% 29.89 in 10.0 mi NNW 17.3 mph 32.2 mph N/A   Clear
9:15 PM 66.2 °F 10.4 °F 11% 29.90 in 10.0 mi NNW 18.4 mph 31.1 mph N/A   Clear
9:40 PM 66.2 °F 10.4 °F 11% 29.90 in 10.0 mi North 17.3 mph 28.8 mph N/A   Clear
10:00 PM 64.4 °F 10.4 °F 12% 29.91 in 10.0 mi NNW 17.3 mph 25.3 mph N/A   Clear
10:20 PM 64.4 °F 12.2 °F 13% 29.91 in 10.0 mi North 17.3 mph 24.2 mph N/A   Clear
10:40 PM 64.4 °F 10.4 °F 12% 29.92 in 10.0 mi NNW 15.0 mph 28.8 mph N/A   Clear
11:00 PM 64.4 °F 10.4 °F 12% 29.92 in 10.0 mi NNW 18.4 mph 28.8 mph N/A   Clear
11:20 PM 64.4 °F 10.4 °F 12% 29.92 in 10.0 mi NNW 18.4 mph 28.8 mph N/A   Clear
11:40 PM 62.6 °F 10.4 °F 13% 29.92 in 10.0 mi North 24.2 mph 34.5 mph N/A   Clear